Showing default

COSMOS 2453, 35500

Orbit data source: Space-Track

COSMOS 2453, 35500 is a payload satellite owned by KVR (CIS) in LEO that was launched on Mon, 06 Jul 2009 UTC via an ROKOT launch vehicle from the Plesetsk Missile And Space Complex (PKMTR). Payload-class satellites include a variety of spacecraft equipped with specific instruments for various scientific and technological missions. These include communications satellites like Starlink; space stations such as the ISS; scientific satellites like the Hubble; Earth observation satellites from companies like Planet Labs, Umbra, and HawkEye 360; GPS; miniature CubeSats for education and research; and military/defense satellites.

Loading next visibility...
Identifier
35500, 2009-036C
Orbit
LEO
Country
Flag of CISCIS
Related business
Manufacturer
Resehetnev ISS
Mission
Operational Defense Communications
Bus & Motor
STRELA-3, Unknown motor
Mass
225 kg wet, 225 kg dry
Launch date (UTC)
2009-07-06 (16 years ago)
Launch vehicle
ROKOT
Launch site
Plesetsk Missile And Space Complex (PKMTR)
Object type
Payload
Rocket body
Debris
Shape & HBR
Cyl + 1 Ant, 3.5 m
Radar Cross Section
1.583 m², Medium (>0.1 m² and < 1m²)

Expand to show TLE details & history
Last TLE update: 17 hours ago

TLE from 17 hours ago
0 COSMOS 2453
1 35500U 09036C   25260.28398010  .00000034  00000-0  17569-3 0  9995
2 35500  82.4830 257.4100 0008007  47.3445 312.8307 12.41512855734115
Epoch: 2025-09-17T06:48Z
TLE epoch observation values (Epoch: 2025-09-17T06:48:55.88Z)
Latitude
-0.00007°
Longitude
158.71502°
Altitude
1,498.607 km
Speed
7.117 km/s
True Right ascension
17h 09m 38s
True Declination
0° 00' 00"
Sunlit
Object was in daylight at epoch
Visualization orbit readout
Latitude
Unknown
Longitude
Unknown
Altitude
Unknown
Speed
Unknown
Apparent Right ascension
Unknown
Apparent Declination
Unknown
Sunlit
N/A
Visualization observer readout
Local Sidereal Time
17:03:05
Azimuth
Unknown
Elevation
Unknown
Doppler factor
Unknown
Orbital elements
Apogee altitude
1,503.856 km
Perigee altitude
1,491.244 km
Semi-major axis
7,875.687 km
Eccentricity
0.0008
Inclination
82.483°
RAAN
257.41°
Arg. of periapsis
47.3445°
True anomaly
312.76337°
Mean anomaly
312.8307°
Eccentric anomaly
312.79704°
Mean motion
3.10535 °/min
Orbital period
115.93 mins
BSTAR
0.00017569
Loading maneuver chart data...
Computing Atmospheric mass density...
Loading historical data...
Loading historical data...
Loading historical data...
Loading historical data...
Loading historical data...
Loading historical data...
Loading historical data...
Other satellites on launch #36 in the year 2009 (2009-07-06 UTC)

Documentation

Showing up to 5 results
|